This is the latest recevied weather packets stored in our database for station/object WD4ITN. If no packets are shown the sender has not sent any weather packets the latest 10 day(s).
| Time | Temp. | Humidity | Pressure | Rain* | Wind** | Luminosity | Snow |
|---|---|---|---|---|---|---|---|
| 1778184818 | 15.56° C | 54% | 1007.2 hPa | 0 mm | - | - | - |
| 1778184506 | 16.11° C | 54% | 1007.2 hPa | 0 mm | - | - | - |
| 1778184205 | 16.11° C | 52% | 1007.1 hPa | 0 mm | - | - | - |
| 1778183921 | 16.67° C | 51% | 1007.1 hPa | 0 mm | - | - | - |
| 1778183609 | 16.67° C | 57% | 1007.1 hPa | 0 mm | - | - | - |
| 1778183309 | 16.11° C | 53% | 1007.1 hPa | 0 mm | - | - | - |
| 1778183009 | 16.11° C | 55% | 1007.1 hPa | 0 mm | - | - | - |
| 1778182702 | 16.11° C | 53% | 1007.3 hPa | 0 mm | - | - | - |
| 1778182406 | 16.11° C | 56% | 1007.5 hPa | 0 mm | - | - | - |
| 1778182123 | 16.11° C | 54% | 1007.5 hPa | 0 mm | - | - | - |
| 1778181795 | 16.11° C | 55% | 1007.4 hPa | 0 mm | - | - | - |
| 1778181514 | 16.11° C | 55% | 1007.3 hPa | 0 mm | - | - | - |
| 1778181214 | 16.11° C | 51% | 1007.4 hPa | 0 mm | - | - | - |
| 1778180903 | 16.11° C | 57% | 1007.5 hPa | 0 mm | - | - | - |
| 1778180604 | 16.11° C | 59% | 1007.5 hPa | 0 mm | - | - | - |
| 1778180292 | 15.56° C | 61% | 1007.4 hPa | 0 mm | - | - | - |
| 1778180012 | 16.11° C | 62% | 1007.5 hPa | 0 mm | - | - | - |
| 1778179711 | 15.56° C | 58% | 1007.7 hPa | 0 mm | - | - | - |
| 1778179408 | 15.56° C | 60% | 1007.8 hPa | 0 mm | - | - | - |
| 1778179097 | 15.56° C | 64% | 1007.8 hPa | 0 mm | - | - | - |
| 1778178795 | 15.56° C | 64% | 1007.6 hPa | 0 mm | - | - | - |
| 1778178514 | 15° C | 66% | 1007.6 hPa | 0 mm | - | - | - |
| 1778178214 | 14.44° C | 63% | 1007.7 hPa | 0 mm | - | - | - |
| 1778177912 | 13.89° C | 66% | 1007.7 hPa | 0 mm | - | - | - |
| 1778177608 | 13.33° C | 68% | 1007.8 hPa | 0 mm | - | - | - |
* Rain since midnight (hover to see other rain measurements)
** Current wind speed in m/s (hover to see current wind gust speed)